Regional Weather Roundup
Issued by NWS

Home | Current Version | Previous Version | Graphics & Text | Print | Product List | Glossary On
Versions: 1 2 3 4 5 6 7 8 9 10 11 12 13 14 15 16 17 18 19 20 21 22 23 24 25 26 27 28 29 30 31 32 33 34 35 36 37 38 39 40 41 42 43 44 45 46 47 48 49 50
000
ASUS44 KMEG 160100
RWRTN
TENNESSEE HOURLY STATE WEATHER ROUNDUP
NATIONAL WEATHER SERVICE MEMPHIS TN
800 PM CDT TUE APR 15 2014

TNZ002-004-019-021-049-052-054-088>092-160200-
WEST TENNESSEE

CITY           SKY/WX    TMP DP  RH WIND       PRES   REMARKS
MEMPHIS INTL   CLEAR     47  22  37 NE9       30.19R
NWS MEMPHIS      N/A     45 N/A N/A MISG        N/A
JACKSON        CLEAR     41  24  51 N6        30.19S
DYERSBURG      CLEAR     43  21  42 NE5       30.21S
UNION CITY     CLEAR     41  21  45 E3        30.19S
LEXINGTON      CLEAR     41  21  45 N3        30.16S
$$

TNZ008-025-027-028-033-062-065-066-160200-
NORTH MIDDLE TENNESSEE

CITY           SKY/WX    TMP DP  RH WIND       PRES   REMARKS
NASHVILLE      CLEAR     41  21  44 N9        30.19S
CLARKSVILLE    CLEAR     37  25  61 N7        30.20S WCI  32
CROSSVILLE     CLEAR     36  21  54 N7        30.12R WCI  30
$$

TNZ061-075-076-078-094-096-097-160200-
SOUTH MIDDLE TENNESSEE

CITY           SKY/WX    TMP DP  RH WIND       PRES   REMARKS
TULLAHOMA      CLEAR     37  21  52 N10       30.13S WCI  30
WINCHESTER     CLEAR     37  25  60 N8        30.12F WCI  31
MCMINNVILLE    CLEAR     37  23  56 N6        30.14S WCI  33
COLUMBIA       CLEAR     43  27  52 N7        30.16R
$$

TNZ017-018-042-046-047-160200-
NORTHEAST TENNESSEE

CITY           SKY/WX    TMP DP  RH WIND       PRES   REMARKS
TRI CITIES     CLOUDY    36  21  54 NW8       30.12R WCI  30
ELIZABETHTON   CLOUDY    34  21  60 CALM      30.10R
$$

TNZ012-013-036-069-073-074-160200-
CENTRAL EAST TENNESSEE

CITY           SKY/WX    TMP DP  RH WIND       PRES   REMARKS
KNOXVILLE      MOCLDY    40  26  57 N14       30.15R WCI  32
OAK RIDGE      CLOUDY    42  23  46 N7        30.17R
$$

TNZ083-085-099-160200-
SOUTHEAST TENNESSEE

CITY           SKY/WX    TMP DP  RH WIND       PRES   REMARKS
CHATTANOOGA    CLEAR     44  23  43 N14       30.11F
$$

SKY/WX REPORTED AS FAIR MEANS FEW OR NO CLOUDS BELOW
12 THOUSAND FEET.




USA.gov is the U.S. government's official web portal to all federal, state and local government web resources and services.